RYR80KA LIBP-EBCI

Flight info

Callsign RYR80KA
Flight time N/A
Altitude 36000
Route OTRET DCT IVMEP DCT SORUG DCT ABREG DCT DITON DCT BEGAR DCT GTQ N852 LNO
Aircraft B738/M-SDE2E3FGHIRWXY/LB1

Departure

Time 2026-04-21 14:44
Airport Abruzzo Airport (LIBP)

Arrival

Time N/A
Airport Brussels South Charleroi Airport (EBCI)
Time Latitude Longitude Altitude Speed Heading
2026-04-21 14:21 42.43054 14.18764 46 ft 0 kts 123°
2026-04-21 14:38 42.43060 14.18751 45 ft 2 kts 125°
2026-04-21 14:38 42.43072 14.18738 45 ft 2 kts 160°
2026-04-21 14:38 42.43087 14.18735 45 ft 2 kts 185°
2026-04-21 14:38 42.43101 14.18740 45 ft 1 kts 211°
2026-04-21 14:39 42.43106 14.18745 44 ft 1 kts 218°
2026-04-21 14:39 42.43108 14.18747 44 ft 0 kts 216°
2026-04-21 14:40 42.43100 14.18739 44 ft 4 kts 216°
2026-04-21 14:41 42.43045 14.18685 44 ft 14 kts 218°
2026-04-21 14:41 42.43019 14.18543 43 ft 19 kts 274°
2026-04-21 14:41 42.42930 14.18397 43 ft 20 kts 216°
2026-04-21 14:41 42.42806 14.18274 43 ft 23 kts 217°
2026-04-21 14:42 42.42661 14.18125 44 ft 27 kts 216°
2026-04-21 14:42 42.42502 14.17956 48 ft 30 kts 218°
2026-04-21 14:42 42.42341 14.17788 53 ft 27 kts 217°
2026-04-21 14:42 42.42253 14.17589 55 ft 24 kts 273°
2026-04-21 14:43 42.42340 14.17497 56 ft 16 kts 29°
2026-04-21 14:43 42.42473 14.17639 54 ft 50 kts 39°
2026-04-21 14:43 42.42948 14.18135 44 ft 118 kts 37°
2026-04-21 14:43 42.43757 14.18967 129 ft 162 kts 37°
2026-04-21 14:44 42.44628 14.19811 839 ft 159 kts 36°
2026-04-21 14:44 42.45531 14.20734 1453 ft 167 kts 38°
2026-04-21 14:44 42.46474 14.21728 1979 ft 180 kts 37°
2026-04-21 14:44 42.47500 14.22800 2513 ft 194 kts 37°
2026-04-21 14:45 42.48612 14.23960 3035 ft 211 kts 37°
2026-04-21 14:45 42.49882 14.25095 3589 ft 227 kts 21°
2026-04-21 14:45 42.51488 14.25298 4180 ft 243 kts 348°
2026-04-21 14:45 42.53049 14.24345 4794 ft 258 kts 324°
2026-04-21 14:46 42.54435 14.22668 5546 ft 268 kts 315°
2026-04-21 14:46 42.55727 14.20900 6421 ft 271 kts 315°
2026-04-21 14:46 42.57068 14.19102 7344 ft 271 kts 315°
2026-04-21 14:46 42.58414 14.17329 8248 ft 273 kts 314°
2026-04-21 14:47 42.59781 14.15533 9119 ft 275 kts 314°
2026-04-21 14:47 42.61142 14.13740 9982 ft 277 kts 313°
2026-04-21 14:47 42.62542 14.11890 10644 ft 287 kts 313°
2026-04-21 14:47 42.63993 14.09967 11154 ft 300 kts 313°
2026-04-21 14:48 42.65519 14.07942 11657 ft 313 kts 313°
2026-04-21 14:48 42.67101 14.05842 12114 ft 328 kts 313°
2026-04-21 14:48 42.68766 14.03634 12607 ft 341 kts 314°
2026-04-21 14:48 42.70553 14.01438 12978 ft 356 kts 317°
2026-04-21 14:49 42.72531 13.99276 13378 ft 371 kts 320°
2026-04-21 14:49 42.74635 13.97111 13801 ft 384 kts 321°
2026-04-21 14:49 42.76783 13.94940 14618 ft 385 kts 321°
2026-04-21 14:49 42.78913 13.92779 15396 ft 387 kts 320°
2026-04-21 14:50 42.80354 13.91306 15931 ft 388 kts 320°
2026-04-21 14:50 42.83235 13.88331 16823 ft 394 kts 320°
2026-04-21 14:50 42.85441 13.86036 17540 ft 396 kts 320°
2026-04-21 14:50 42.87618 13.83760 18226 ft 398 kts 320°
2026-04-21 14:51 42.89825 13.81445 18892 ft 400 kts 320°
2026-04-21 14:51 42.92049 13.79109 19609 ft 402 kts 320°
2026-04-21 14:51 42.94270 13.76773 20270 ft 404 kts 319°
2026-04-21 14:51 42.96478 13.74446 20801 ft 409 kts 320°
2026-04-21 14:52 42.98769 13.72031 21412 ft 411 kts 320°
2026-04-21 14:52 43.01033 13.69647 22043 ft 412 kts 320°
2026-04-21 14:52 43.03285 13.67275 22611 ft 415 kts 320°
2026-04-21 14:52 43.05574 13.64863 23213 ft 417 kts 319°
2026-04-21 14:53 43.07906 13.62403 23719 ft 421 kts 319°
2026-04-21 14:53 43.10204 13.59977 24239 ft 424 kts 319°
2026-04-21 14:53 43.12564 13.57482 24819 ft 426 kts 319°
2026-04-21 14:53 43.14911 13.54999 25324 ft 429 kts 319°
2026-04-21 14:54 43.17291 13.52477 25858 ft 431 kts 319°
2026-04-21 14:54 43.19646 13.49979 26377 ft 432 kts 319°
2026-04-21 14:54 43.22063 13.47412 26933 ft 433 kts 319°
2026-04-21 14:54 43.24423 13.44905 27783 ft 427 kts 319°
2026-04-21 14:55 43.26743 13.42440 28544 ft 422 kts 319°
2026-04-21 14:55 43.29087 13.39944 29148 ft 421 kts 319°
2026-04-21 14:55 43.31378 13.37501 29679 ft 420 kts 319°
2026-04-21 14:55 43.33675 13.35049 30243 ft 418 kts 319°
2026-04-21 14:56 43.35966 13.32600 30813 ft 416 kts 318°
2026-04-21 14:56 43.38221 13.30187 31268 ft 416 kts 318°
2026-04-21 14:56 43.40509 13.27736 31745 ft 415 kts 318°
2026-04-21 14:56 43.42810 13.25268 32253 ft 414 kts 318°
2026-04-21 14:57 43.45070 13.22844 32693 ft 414 kts 318°
2026-04-21 14:57 43.47324 13.20423 33183 ft 412 kts 318°
2026-04-21 14:57 43.49604 13.17972 33602 ft 411 kts 318°
2026-04-21 14:57 43.51838 13.15568 34019 ft 411 kts 319°
2026-04-21 14:58 43.54052 13.13184 34432 ft 410 kts 319°
2026-04-21 14:58 43.56312 13.10748 34820 ft 409 kts 319°
2026-04-21 14:58 43.58524 13.08362 35095 ft 409 kts 319°
2026-04-21 14:58 43.60738 13.05970 35332 ft 410 kts 319°
2026-04-21 14:59 43.62980 13.03546 35588 ft 410 kts 319°
2026-04-21 14:59 43.65224 13.01119 35814 ft 410 kts 319°
2026-04-21 14:59 43.67381 12.98780 35917 ft 412 kts 318°
2026-04-21 15:00 43.71711 12.93788 35933 ft 415 kts 315°
2026-04-21 15:00 43.75971 12.88490 35942 ft 415 kts 315°
2026-04-21 15:01 43.80250 12.83136 35941 ft 415 kts 315°
2026-04-21 15:01 43.84541 12.77800 35954 ft 415 kts 315°
2026-04-21 15:02 43.88834 12.72481 35946 ft 415 kts 315°
2026-04-21 15:02 43.93124 12.67168 35952 ft 416 kts 315°
2026-04-21 15:03 43.97440 12.61815 35961 ft 415 kts 315°
2026-04-21 15:03 44.01718 12.56500 35975 ft 414 kts 315°
2026-04-21 15:04 44.06016 12.51149 35970 ft 415 kts 315°
2026-04-21 15:04 44.10249 12.45871 35976 ft 414 kts 315°
2026-04-21 15:05 44.14542 12.40506 35977 ft 414 kts 315°
2026-04-21 15:05 44.20916 12.32521 35984 ft 413 kts 315°
2026-04-21 15:06 44.25157 12.27193 35976 ft 414 kts 314°
2026-04-21 15:06 44.29403 12.21849 35977 ft 413 kts 315°
2026-04-21 15:07 44.33637 12.16510 35974 ft 413 kts 315°
2026-04-21 15:07 44.37899 12.11124 35961 ft 412 kts 315°
2026-04-21 15:08 44.42126 12.05774 35963 ft 411 kts 315°
2026-04-21 15:08 44.46364 12.00396 35961 ft 412 kts 315°
2026-04-21 15:09 44.50585 11.95027 35959 ft 412 kts 314°
2026-04-21 15:09 44.54792 11.89668 35954 ft 411 kts 314°
2026-04-21 15:10 44.59026 11.84264 35961 ft 411 kts 315°
2026-04-21 15:10 44.63216 11.78904 35961 ft 409 kts 315°
2026-04-21 15:11 44.67408 11.73531 35962 ft 409 kts 314°
2026-04-21 15:11 44.71584 11.68166 35955 ft 409 kts 315°
2026-04-21 15:12 44.75776 11.62771 35952 ft 409 kts 314°
2026-04-21 15:12 44.79936 11.57405 35958 ft 409 kts 314°
2026-04-21 15:13 44.84107 11.52014 35949 ft 408 kts 315°
2026-04-21 15:13 44.88289 11.46601 35951 ft 408 kts 315°
2026-04-21 15:14 44.92471 11.41173 35952 ft 408 kts 314°
2026-04-21 15:14 44.96640 11.35750 35954 ft 408 kts 315°
2026-04-21 15:15 45.00756 11.30382 35950 ft 410 kts 314°
2026-04-21 15:15 45.04939 11.24919 35950 ft 408 kts 314°
2026-04-21 15:16 45.09096 11.19480 35930 ft 408 kts 314°
2026-04-21 15:16 45.13192 11.14111 35933 ft 408 kts 314°
2026-04-21 15:17 45.17324 11.08684 35932 ft 407 kts 314°
2026-04-21 15:17 45.21493 11.03193 35921 ft 408 kts 314°
2026-04-21 15:18 45.25639 10.97724 35947 ft 410 kts 314°
2026-04-21 15:18 45.29810 10.92210 35925 ft 407 kts 314°
2026-04-21 15:19 45.33938 10.86743 35934 ft 407 kts 314°
2026-04-21 15:19 45.38084 10.81239 35923 ft 407 kts 314°
2026-04-21 15:20 45.42169 10.75803 35937 ft 408 kts 314°
2026-04-21 15:20 45.45578 10.71256 35941 ft 407 kts 314°
2026-04-21 15:21 45.49378 10.66182 35922 ft 408 kts 314°
2026-04-21 15:21 45.54227 10.59694 35947 ft 409 kts 314°
2026-04-21 15:22 45.58321 10.54204 35936 ft 407 kts 314°
2026-04-21 15:22 45.62408 10.48713 35929 ft 406 kts 314°
2026-04-21 15:23 45.66497 10.43204 35954 ft 408 kts 314°
2026-04-21 15:23 45.70613 10.37648 35942 ft 407 kts 314°
2026-04-21 15:24 45.74690 10.32130 35947 ft 408 kts 313°
2026-04-21 15:24 45.78773 10.26591 35941 ft 408 kts 313°
2026-04-21 15:25 45.82854 10.21046 35950 ft 407 kts 313°
2026-04-21 15:25 45.86888 10.15555 35953 ft 407 kts 313°
2026-04-21 15:26 45.90960 10.10008 35946 ft 406 kts 313°
2026-04-21 15:26 45.95039 10.04431 35947 ft 407 kts 313°
2026-04-21 15:27 45.99058 9.98928 35930 ft 405 kts 313°
2026-04-21 15:27 46.03086 9.93395 35932 ft 405 kts 313°
2026-04-21 15:28 46.07161 9.87784 35887 ft 406 kts 313°
2026-04-21 15:28 46.11167 9.82255 35928 ft 408 kts 313°
2026-04-21 15:29 46.15171 9.76721 35902 ft 407 kts 313°
2026-04-21 15:29 46.19241 9.71086 35913 ft 409 kts 314°
2026-04-21 15:30 46.23294 9.65465 35869 ft 409 kts 313°
2026-04-21 15:30 46.27351 9.59827 35909 ft 409 kts 314°
2026-04-21 15:31 46.31361 9.54269 35925 ft 409 kts 315°
2026-04-21 15:31 46.35662 9.48926 35905 ft 412 kts 317°
2026-04-21 15:32 46.40027 9.43817 35916 ft 410 kts 318°
2026-04-21 15:32 46.44458 9.38598 35902 ft 411 kts 318°
2026-04-21 15:33 46.48831 9.33388 35917 ft 412 kts 317°
2026-04-21 15:33 46.53241 9.28093 35935 ft 412 kts 317°
2026-04-21 15:34 46.57545 9.22899 35941 ft 411 kts 317°
2026-04-21 15:34 46.61823 9.17721 35958 ft 411 kts 317°
2026-04-21 15:35 46.66145 9.12476 35974 ft 410 kts 317°
2026-04-21 15:35 46.70514 9.07164 35990 ft 410 kts 317°
2026-04-21 15:36 46.74830 9.01903 36027 ft 411 kts 317°
2026-04-21 15:36 46.79200 8.96565 36001 ft 408 kts 317°
2026-04-21 15:37 46.83481 8.91326 35991 ft 411 kts 317°
2026-04-21 15:37 46.87840 8.85974 35969 ft 411 kts 317°
2026-04-21 15:38 46.92179 8.80639 35974 ft 409 kts 317°
2026-04-21 15:38 46.96484 8.75339 35998 ft 410 kts 317°
2026-04-21 15:39 47.00819 8.69984 36033 ft 409 kts 317°
2026-04-21 15:39 47.05116 8.64667 36045 ft 409 kts 317°
2026-04-21 15:40 47.09450 8.59286 36043 ft 413 kts 317°
2026-04-21 15:40 47.13781 8.53904 36057 ft 412 kts 317°
2026-04-21 15:41 47.17857 8.48829 36054 ft 412 kts 318°
2026-04-21 15:41 47.22277 8.43312 36049 ft 410 kts 317°
2026-04-21 15:42 47.26363 8.38202 36033 ft 413 kts 318°
2026-04-21 15:42 47.30733 8.32728 36058 ft 413 kts 317°
2026-04-21 15:43 47.35119 8.27333 36041 ft 411 kts 318°
2026-04-21 15:43 47.39511 8.21982 36042 ft 412 kts 318°
2026-04-21 15:44 47.43803 8.16745 36064 ft 414 kts 318°
2026-04-21 15:44 47.48156 8.11411 36047 ft 415 kts 318°
2026-04-21 15:45 47.52477 8.06097 36049 ft 415 kts 318°
2026-04-21 15:45 47.56831 8.00724 36048 ft 415 kts 318°
2026-04-21 15:46 47.61229 7.95286 36036 ft 416 kts 318°
2026-04-21 15:46 47.65667 7.89790 36045 ft 416 kts 319°
2026-04-21 15:47 47.70019 7.84386 36042 ft 418 kts 318°
2026-04-21 15:47 47.74419 7.78909 36032 ft 418 kts 318°
2026-04-21 15:48 47.78783 7.73466 36029 ft 416 kts 318°
2026-04-21 15:48 47.80991 7.70707 36250 ft 418 kts 319°
2026-04-21 15:48 47.83179 7.67971 36103 ft 416 kts 318°
2026-04-21 15:49 47.85342 7.65263 35909 ft 409 kts 318°
2026-04-21 15:49 47.87517 7.62550 36029 ft 411 kts 319°
2026-04-21 15:49 47.92116 7.57489 36046 ft 422 kts 326°
2026-04-21 15:50 47.97261 7.53337 36062 ft 424 kts 330°
2026-04-21 15:50 48.02487 7.49537 36160 ft 423 kts 331°
2026-04-21 15:51 48.07647 7.45803 36076 ft 417 kts 331°
2026-04-21 15:51 48.12664 7.42118 36069 ft 422 kts 331°
2026-04-21 15:52 48.17945 7.38200 36080 ft 420 kts 331°
2026-04-21 15:52 48.23107 7.34344 36081 ft 421 kts 330°
2026-04-21 15:53 48.28175 7.30546 36079 ft 421 kts 330°
2026-04-21 15:53 48.33432 7.26595 36074 ft 424 kts 330°
2026-04-21 15:54 48.38512 7.22769 36077 ft 422 kts 330°
2026-04-21 15:54 48.43699 7.18851 36085 ft 425 kts 330°
2026-04-21 15:55 48.48926 7.14895 36078 ft 424 kts 331°
2026-04-21 15:55 48.54147 7.10936 35889 ft 424 kts 330°
2026-04-21 15:56 48.56701 7.08996 36044 ft 426 kts 330°
2026-04-21 15:56 48.59267 7.07044 36072 ft 430 kts 331°
2026-04-21 15:56 48.64566 7.03003 36092 ft 431 kts 331°
2026-04-21 15:57 48.69775 6.99025 36098 ft 429 kts 331°
2026-04-21 15:57 48.75072 6.94970 36107 ft 431 kts 331°
2026-04-21 15:58 48.80362 6.90909 36116 ft 433 kts 331°
2026-04-21 15:58 48.85712 6.86795 36112 ft 432 kts 331°
2026-04-21 15:59 48.91079 6.82656 36113 ft 435 kts 331°
2026-04-21 15:59 48.96432 6.78518 36118 ft 433 kts 331°
2026-04-21 16:00 49.01702 6.74435 36118 ft 435 kts 331°
2026-04-21 16:00 49.07058 6.70275 36145 ft 429 kts 331°
2026-04-21 16:01 49.12270 6.66219 36134 ft 430 kts 331°
2026-04-21 16:01 49.17621 6.62041 36135 ft 433 kts 332°
2026-04-21 16:02 49.22897 6.57914 36140 ft 432 kts 332°
2026-04-21 16:02 49.28123 6.53813 36137 ft 432 kts 332°
2026-04-21 16:03 49.33363 6.49692 36142 ft 433 kts 332°
2026-04-21 16:03 49.38677 6.45504 36139 ft 433 kts 332°
2026-04-21 16:04 49.43927 6.41357 36150 ft 434 kts 332°
2026-04-21 16:04 49.49308 6.37373 36148 ft 435 kts 335°
2026-04-21 16:05 49.54786 6.33916 36157 ft 436 kts 336°
2026-04-21 16:06 49.64671 6.27864 36164 ft 436 kts 336°
2026-04-21 16:06 49.69384 6.24937 36161 ft 437 kts 336°
2026-04-21 16:07 49.76306 6.20598 36166 ft 433 kts 336°
2026-04-21 16:08 49.82778 6.16517 35619 ft 425 kts 336°
2026-04-21 16:08 49.84191 6.15624 35301 ft 425 kts 336°
2026-04-21 16:09 49.87270 6.13673 34488 ft 428 kts 336°
2026-04-21 16:09 49.90518 6.11611 33625 ft 432 kts 336°
2026-04-21 16:09 49.96717 6.07553 32331 ft 432 kts 333°
2026-04-21 16:10 49.99876 6.04850 32047 ft 427 kts 327°
2026-04-21 16:10 50.04927 5.98151 31617 ft 437 kts 314°
2026-04-21 16:10 50.07272 5.93889 31343 ft 437 kts 308°